Change the Weather History Date:

Friday, August 30, 2013

  Actual Average Record
Temperature  
Mean Temperature 71 °F 67 °F  
Max Temperature 82 °F 77 °F 88 °F (2007)
Min Temperature 59 °F 58 °F 55 °F (2006)
Degree Days  
Heating Degree Days 0    
Month to date heating degree days 40  
Since 1 June heating degree days 107  
Since 1 July heating degree days 60  
Cooling Degree Days 6    
Month to date cooling degree days 44  
Year to date cooling degree days 196  
Since 1 June cooling degree days 149  
Growing Degree Days 20 (Base 50)    
Moisture  
Dew Point 61 °F    
Average Humidity 76    
Maximum Humidity 100    
Minimum Humidity 51    
Precipitation  
Precipitation 0.00 in - 0.00 in (2015)
Month to date precipitation T  
Year to date precipitation 1.49  
Since 1 July precipitation T  
Sea Level Pressure  
Sea Level Pressure 30.03 in    
Wind  
Wind Speed 5 mph (WSW)    
Max Wind Speed 15 mph    
Max Gust Speed 21 mph    
Visibility 10 miles    
Events      
T = Trace of Precipitation, MM = Missing Value Source: NWS Daily Summary

Daily Weather History Graph

Daily Weather History Graph

Search for Another Location

Airport or City:

Trip Planner

Search our weather history database for the weather conditions in past years. The results will help you decide how hot, cold, wet, or windy it might be!

Date:

Astronomy

Aug. 30, 2013 Rise Set
Actual Time 6:37 AM PDT 7:40 PM PDT
Civil Twilight 6:10 AM PDT 8:06 PM PDT
Nautical Twilight 5:38 AM PDT 8:38 PM PDT
Astronomical Twilight 5:05 AM PDT 9:11 PM PDT
Moon 1:23 AM PDT (8/30) 3:56 PM PDT (8/30)
Length of Visible Light 13h 56m
Length of Day
13h 02m
Waning Crescent, 28% of the Moon is Illuminated
Aug 30
Waning Crescent
Sep 5
New
Sep 12
First Quarter
Sep 19
Full
Sep 26
Last Quarter

Hourly Weather History & Observations

Time (PDT) Temp. Heat Index Dew Point Humidity Pressure Visibility Wind Dir Wind Speed Gust Speed Precip Events Conditions
12:54 AM 63.0 °F - 62.1 °F 97% 30.07 in 10.0 mi South 5.8 mph - N/A   Overcast
1:54 AM 62.1 °F - 62.1 °F 100% 30.06 in 10.0 mi Calm Calm - N/A   Mostly Cloudy
2:54 AM 61.0 °F - 61.0 °F 100% 30.06 in 10.0 mi West 3.5 mph - N/A   Mostly Cloudy
3:54 AM 60.1 °F - 60.1 °F 100% 30.05 in 10.0 mi ESE 4.6 mph - N/A   Overcast
4:54 AM 60.1 °F - 60.1 °F 100% 30.05 in 10.0 mi South 3.5 mph - N/A   Overcast
5:54 AM 60.1 °F - 60.1 °F 100% 30.05 in 10.0 mi SW 5.8 mph - N/A   Overcast
6:09 AM 60.8 °F - 60.8 °F 100% 30.03 in 10.0 mi Calm Calm - N/A   Overcast
6:40 AM 60.8 °F - 60.8 °F 100% 30.03 in 10.0 mi South 3.5 mph - N/A   Overcast
6:54 AM 60.1 °F - 60.1 °F 100% 30.07 in 10.0 mi SW 5.8 mph - N/A   Overcast
7:54 AM 60.1 °F - 60.1 °F 100% 30.07 in 10.0 mi WSW 3.5 mph - N/A   Overcast
8:54 AM 63.0 °F - 62.1 °F 97% 30.08 in 10.0 mi Calm Calm - N/A   Overcast
9:47 AM 68.0 °F - 62.6 °F 83% 30.05 in 10.0 mi West 3.5 mph - N/A   Partly Cloudy
9:54 AM 68.0 °F - 62.1 °F 81% 30.07 in 10.0 mi Calm Calm - N/A   Partly Cloudy
10:54 AM 71.1 °F - 63.0 °F 75% 30.06 in 10.0 mi Variable 3.5 mph - N/A   Clear
11:54 AM 75.0 °F - 61.0 °F 62% 30.06 in 10.0 mi West 4.6 mph - N/A   Clear
12:54 PM 78.1 °F - 61.0 °F 56% 30.04 in 10.0 mi Variable 6.9 mph - N/A   Clear
1:54 PM 81.0 °F 81.6 °F 60.1 °F 49% 30.02 in 10.0 mi West 11.5 mph - N/A   Clear
2:54 PM 79.0 °F - 61.0 °F 54% 30.00 in 10.0 mi West 13.8 mph - N/A   Clear
3:54 PM 78.1 °F - 62.1 °F 58% 29.98 in 10.0 mi WNW 11.5 mph - N/A   Clear
4:54 PM 75.9 °F - 62.1 °F 62% 29.97 in 10.0 mi West 11.5 mph - N/A   Clear
5:54 PM 73.9 °F - 62.1 °F 66% 29.96 in 10.0 mi West 10.4 mph - N/A   Clear
6:54 PM 72.0 °F - 62.1 °F 71% 29.96 in 10.0 mi West 6.9 mph - N/A   Clear
7:54 PM 69.1 °F - 61.0 °F 75% 29.96 in 10.0 mi WNW 4.6 mph - N/A   Clear
8:54 PM 66.9 °F - 61.0 °F 81% 29.97 in 10.0 mi Calm Calm - N/A   Clear
9:54 PM 66.0 °F - 60.1 °F 81% 29.99 in 10.0 mi WSW 4.6 mph - N/A   Clear
10:54 PM 64.9 °F - 59.0 °F 81% 29.99 in 10.0 mi Calm Calm - N/A   Clear
11:54 PM 64.0 °F - 59.0 °F 84% 29.99 in 10.0 mi SE 3.5 mph - N/A   Clear